Change the Weather History Date:

Wednesday, January 9, 2013

  Actual Average Record
Temperature  
Mean Temperature 50 °F -  
Max Temperature 53 °F 49 °F 77 °F (2009)
Min Temperature 46 °F 32 °F 15 °F (1999)
Degree Days  
Heating Degree Days 16    
Moisture  
Dew Point 49 °F    
Average Humidity 100    
Maximum Humidity 100    
Minimum Humidity 100    
Precipitation  
Precipitation 0.02 in - - ()
Sea Level Pressure  
Sea Level Pressure 30.12 in    
Wind  
Wind Speed 7 mph (NE)    
Max Wind Speed 12 mph    
Max Gust Speed 17 mph    
Visibility 7 miles    
Events Rain    
Averages and records for this station are not official NWS values.
T = Trace of Precipitation, MM = Missing Value Source: NWS Daily Summary

Daily Weather History Graph

Daily Weather History Graph

Search for Another Location

Airport or City:

Trip Planner

Search our weather history database for the weather conditions in past years. The results will help you decide how hot, cold, wet, or windy it might be!

Date:

Astronomy

Jan. 09, 2013 Rise Set
Actual Time 7:34 AM CST 5:36 PM CST
Civil Twilight 7:07 AM CST 6:03 PM CST
Nautical Twilight 6:36 AM CST 6:34 PM CST
Astronomical Twilight 6:05 AM CST 7:04 PM CST
Moon 5:15 AM CST (1/9) 3:39 PM CST (1/9)
Length of Visible Light 10h 56m
Length of Day
10h 01m
Waning Crescent, 6% of the Moon is Illuminated
Jan 9
Waning Crescent
Jan 11
New
Jan 18
First Quarter
Jan 26
Full
Feb 3
Last Quarter

Hourly Weather History & Observations

Time (CST) Temp. Windchill Dew Point Humidity Pressure Visibility Wind Dir Wind Speed Gust Speed Precip Events Conditions
12:15 AM 48.2 °F - 48.2 °F 100% 30.13 in 3.0 mi NNE 5.8 mph - N/A   Drizzle
12:35 AM 48.2 °F - 48.2 °F 100% 30.13 in 4.0 mi NNE 6.9 mph - N/A   Light Drizzle
12:55 AM 46.4 °F 44.3 °F 46.4 °F 100% 30.13 in 3.0 mi NE 4.6 mph - N/A   Drizzle
1:15 AM 46.4 °F 42.9 °F 46.4 °F 100% 30.13 in 4.0 mi North 6.9 mph - N/A   Light Drizzle
1:35 AM 46.4 °F 42.9 °F 46.4 °F 100% 30.13 in 4.0 mi NNE 6.9 mph - N/A   Light Drizzle
1:55 AM 48.2 °F - 48.2 °F 100% 30.12 in 4.0 mi NE 8.1 mph 17.3 mph N/A   Mist
2:15 AM 48.2 °F - 48.2 °F 100% 30.13 in 10.0 mi North 8.1 mph - N/A   Unknown
2:35 AM 48.2 °F - 48.2 °F 100% 30.13 in 10.0 mi North 5.8 mph - N/A   Unknown
2:55 AM 48.2 °F - 48.2 °F 100% 30.13 in 10.0 mi ENE 9.2 mph 16.1 mph N/A   Unknown
3:15 AM 48.2 °F - 48.2 °F 100% 30.13 in 10.0 mi NE 8.1 mph - N/A   Unknown
3:35 AM 48.2 °F - 48.2 °F 100% 30.13 in 5.0 mi NE 5.8 mph - N/A   Mist
3:55 AM 48.2 °F - 48.2 °F 100% 30.13 in 10.0 mi North 6.9 mph - N/A   Unknown
4:15 AM 48.2 °F - 48.2 °F 100% 30.12 in 7.0 mi NE 8.1 mph - N/A   Unknown
4:35 AM 48.2 °F - 48.2 °F 100% 30.13 in 10.0 mi NE 8.1 mph - N/A   Unknown
4:55 AM 48.2 °F - 48.2 °F 100% 30.14 in 10.0 mi NNE 8.1 mph - N/A   Unknown
5:15 AM 48.2 °F - 48.2 °F 100% 30.15 in 10.0 mi NE 6.9 mph - N/A   Unknown
5:35 AM 48.2 °F - 48.2 °F 100% 30.16 in 7.0 mi NNE 9.2 mph - N/A   Unknown
10:35 PM 53.6 °F - 53.6 °F 100% 30.08 in 10.0 mi East 11.5 mph 16.1 mph N/A   Unknown
10:55 PM 53.6 °F - 53.6 °F 100% 30.08 in 7.0 mi East 10.4 mph - N/A Rain Rain
11:15 PM 53.6 °F - 53.6 °F 100% 30.07 in 5.0 mi East 8.1 mph - 0.01 in Rain Light Rain
11:35 PM 53.6 °F - 53.6 °F 100% 30.07 in 5.0 mi East 10.4 mph - 0.02 in   Drizzle
11:55 PM 53.6 °F - 53.6 °F 100% 30.06 in 5.0 mi East 10.4 mph - 0.02 in Rain Rain